Charlottetown, Prince Edward Island

12:12 AM ADT on June 25, 2017 (GMT -0300)
Charlottetown

Weather History for CYYG - November, 2012

Change the Weather History Date:

Friday, November 16, 2012

  Actual Average Record
Temperature  
Mean Temperature 38 °F -  
Max Temperature 40 °F 37 °F 64 °F (2007)
Min Temperature 35 °F 23 °F 20 °F (2014)
Degree Days  
Heating Degree Days 28    
Moisture  
Dew Point 36 °F    
Average Humidity 89    
Maximum Humidity 100    
Minimum Humidity 71    
Precipitation  
Precipitation 0.02 in 0.17 in - ()
Sea Level Pressure  
Sea Level Pressure 30.23 in    
Wind  
Wind Speed 6 mph ()    
Max Wind Speed 10 mph    
Max Gust Speed -    
Visibility 10.9 miles    
Events Rain    
Averages and records for this station are not official NWS values.
T = Trace of Precipitation, MM = Missing Value Source: Averaged Metar Reports

Daily Weather History Graph

Daily Weather History Graph

Search for Another Location

Airport or City:

Trip Planner

Search our weather history database for the weather conditions in past years. The results will help you decide how hot, cold, wet, or windy it might be!

Date:

Astronomy

Nov. 16, 2012 Rise Set
Actual Time 7:15 AM AST 4:38 PM AST
Civil Twilight 6:43 AM AST 5:11 PM AST
Nautical Twilight 6:06 AM AST 5:47 PM AST
Astronomical Twilight 5:30 AM AST 6:23 PM AST
Moon 10:09 AM AST (11/16) 7:30 PM AST (11/16)
Length of Visible Light 10h 28m
Length of Day
9h 22m
Waxing Crescent, 11% of the Moon is Illuminated
Nov 16
Waxing Crescent
Nov 20
First Quarter
Nov 28
Full
Dec 6
Last Quarter
Dec 13
New

Hourly Weather History & Observations

Time (AST) Temp. Windchill Dew Point Humidity Pressure Visibility Wind Dir Wind Speed Gust Speed Precip Events Conditions
12:00 AM 41.0 °F 35.8 °F 41.0 °F 100% 30.23 in 2.0 mi North 8.1 mph - N/A   Light Drizzle
1:00 AM 41.0 °F 34.7 °F 41.0 °F 100% 30.22 in 2.0 mi North 10.4 mph - N/A   Light Drizzle
2:00 AM 41 °F - 41 °F 99% 30.22 in 2 mi North 8.1 mph - - Rain Light Drizzle
2:00 AM 41.0 °F 35.8 °F 41.0 °F 100% 30.22 in 2.0 mi North 8.1 mph - N/A   Light Drizzle
3:00 AM 41.0 °F 37.1 °F 41.0 °F 100% 30.22 in 3.0 mi North 5.8 mph - N/A   Light Drizzle
3:05 AM 41.0 °F 37.1 °F 41.0 °F 100% 30.21 in 6.0 mi North 5.8 mph - N/A   Overcast
3:36 AM 41.0 °F 37.1 °F 41.0 °F 100% 30.21 in 6.0 mi NW 5.8 mph - N/A   Light Drizzle
4:00 AM 41.0 °F 37.1 °F 41.0 °F 100% 30.21 in 60.0 mi NW 5.8 mph - N/A   Light Drizzle
5:00 AM 41.0 °F 35.8 °F 41.0 °F 100% 30.21 in 3.0 mi NNW 8.1 mph - N/A   Light Drizzle
6:00 AM 39.2 °F 35.9 °F 39.2 °F 100% 30.21 in 8.0 mi NNW 4.6 mph - N/A   Mostly Cloudy
7:00 AM 39.2 °F 35.0 °F 37.4 °F 93% 30.21 in 15.0 mi NNW 5.8 mph - N/A   Overcast
8:00 AM 39 °F - 36 °F 86% 30.22 in 15 mi NNW 5.8 mph - -   Partly Cloudy
8:00 AM 39.2 °F 35.0 °F 35.6 °F 87% 30.22 in 15.0 mi NNW 5.8 mph - N/A   Overcast
9:00 AM 39.2 °F 34.2 °F 35.6 °F 87% 30.23 in 15.0 mi NNW 6.9 mph - N/A   Overcast
10:00 AM 41.0 °F 35.8 °F 35.6 °F 81% 30.24 in 15.0 mi North 8.1 mph - N/A   Overcast
11:00 AM 39.2 °F 33.6 °F 33.8 °F 81% 30.23 in 15.0 mi North 8.1 mph - N/A   Overcast
12:00 PM 39.2 °F 34.2 °F 33.8 °F 81% 30.22 in 15.0 mi NNW 6.9 mph - N/A   Overcast
1:00 PM 39.2 °F 33.6 °F 32.0 °F 75% 30.22 in 15.0 mi North 8.1 mph - N/A   Overcast
2:00 PM 39 °F - 35 °F 79% 30.22 in 15 mi North 5.8 mph - - Rain Light Drizzle
2:00 PM 39.2 °F 35.0 °F 33.8 °F 81% 30.22 in 15.0 mi North 5.8 mph - N/A   Light Drizzle
2:36 PM 37.4 °F 30.8 °F 35.6 °F 93% 30.22 in 3.0 mi North 9.2 mph - N/A   Light Drizzle
3:00 PM 37.4 °F 30.8 °F 35.6 °F 93% 30.23 in 4.0 mi North 9.2 mph - N/A   Light Drizzle
3:26 PM 37.4 °F 33.8 °F 35.6 °F 93% 30.23 in 12.0 mi NNW 4.6 mph - N/A   Mostly Cloudy
4:00 PM 37.4 °F 31.4 °F 33.8 °F 87% 30.24 in 15.0 mi NNW 8.1 mph - N/A   Mostly Cloudy
5:00 PM 37.4 °F 32.8 °F 33.8 °F 87% 30.23 in 15.0 mi North 5.8 mph - N/A   Mostly Cloudy
6:00 PM 37.4 °F 32.1 °F 32.0 °F 81% 30.25 in 15.0 mi NNW 6.9 mph - N/A   Mostly Cloudy
7:00 PM 37.4 °F 32.8 °F 30.2 °F 75% 30.26 in 15.0 mi NNW 5.8 mph - N/A   Mostly Cloudy
8:00 PM 37 °F - 31 °F 71% 30.27 in 15 mi NNW 4.6 mph - -   Partly Cloudy
8:00 PM 37.4 °F 33.8 °F 30.2 °F 75% 30.27 in 15.0 mi NW 4.6 mph - N/A   Overcast
9:00 PM 37.4 °F 33.8 °F 30.2 °F 75% 30.27 in 15.0 mi NW 4.6 mph - N/A   Overcast
10:00 PM 35.6 °F 31.7 °F 32.0 °F 87% 30.28 in 15.0 mi West 4.6 mph - N/A   Overcast
11:00 PM 35.6 °F 32.8 °F 32.0 °F 87% 30.27 in 15.0 mi WNW 3.5 mph - N/A   Overcast